| time (UTC) | temp C | wind direction | speed KPH | gust KPH | rain 1hr cm | rain 24hr cm | rain mn cm | humidity % | barometer mb |
| 20260505041532 | 20 | 240 | 6.4 | 25.7 | 0.00 | 0.00 | 0.00 | 61 | 1031.3 |
| 20260505041028 | 20 | 274 | 4.8 | 17.7 | 0.00 | 0.00 | 0.00 | 61 | 1031.3 |
| 20260505040528 | 20 | 233 | 6.4 | 20.9 | 0.00 | 0.00 | 0.00 | 61 | 1031.3 |
| 20260505040028 | 20 | 282 | 4.8 | 20.9 | 0.00 | 0.00 | 0.00 | 60 | 1031.3 |
| 20260505035527 | 20 | 262 | 8.0 | 19.3 | 0.00 | 0.00 | 0.00 | 60 | 1031.3 |
| 20260505035027 | 20 | 288 | 4.8 | 16.1 | 0.00 | 0.00 | 0.00 | 60 | 1031.3 |
| 20260505034530 | 21 | 298 | 6.4 | 16.1 | 0.00 | 0.00 | 0.00 | 60 | 1031.3 |
| 20260505034027 | 21 | 276 | 8.0 | 16.1 | 0.00 | 0.00 | 0.00 | 60 | 1031.3 |
| 20260505033530 | 21 | 261 | 8.0 | 17.7 | 0.00 | 0.00 | 0.00 | 59 | 1031.3 |
| 20260505033029 | 21 | 281 | 8.0 | 17.7 | 0.00 | 0.00 | 0.00 | 59 | 1031.3 |
| 20260505032528 | 21 | 285 | 4.8 | 17.7 | 0.00 | 0.00 | 0.00 | 58 | 1031.3 |
| 20260505032027 | 21 | 294 | 8.0 | 17.7 | 0.00 | 0.00 | 0.00 | 58 | 1031.3 |
| 20260505031526 | 21 | 290 | 4.8 | 14.5 | 0.00 | 0.00 | 0.00 | 58 | 1031.3 |
| 20260505031026 | 21 | 288 | 4.8 | 19.3 | 0.00 | 0.00 | 0.00 | 57 | 1031.3 |
| 20260505030526 | 21 | 296 | 8.0 | 19.3 | 0.00 | 0.00 | 0.00 | 57 | 1031.3 |
| 20260505030029 | 21 | 293 | 6.4 | 16.1 | 0.00 | 0.00 | 0.00 | 57 | 1031.3 |
| 20260505025529 | 21 | 288 | 4.8 | 19.3 | 0.00 | 0.00 | 0.00 | 56 | 1031.3 |
| 20260505025026 | 21 | 266 | 9.7 | 24.1 | 0.00 | 0.00 | 0.00 | 56 | 1031.3 |
| 20260505024525 | 22 | 301 | 9.7 | 24.1 | 0.00 | 0.00 | 0.00 | 56 | 1031.3 |
| 20260505024025 | 22 | 278 | 9.7 | 19.3 | 0.00 | 0.00 | 0.00 | 55 | 1031.3 |
| 20260505023525 | 22 | 309 | 8.0 | 19.3 | 0.00 | 0.00 | 0.00 | 55 | 1031.3 |
| 20260505023025 | 22 | 235 | 8.0 | 17.7 | 0.00 | 0.00 | 0.00 | 55 | 1031.3 |
| 20260505022525 | 22 | 286 | 8.0 | 17.7 | 0.00 | 0.00 | 0.00 | 54 | 1031.3 |
| 20260505022024 | 22 | 207 | 6.4 | 17.7 | 0.00 | 0.00 | 0.00 | 54 | 1031.3 |
| 20260505021525 | 22 | 267 | 6.4 | 24.1 | 0.00 | 0.00 | 0.00 | 54 | 1031.3 |
| 20260505021024 | 22 | 323 | 6.4 | 19.3 | 0.00 | 0.00 | 0.00 | 53 | 1031.3 |
| 20260505020524 | 22 | 240 | 4.8 | 14.5 | 0.00 | 0.00 | 0.00 | 53 | 1031.3 |
| 20260505020024 | 22 | 244 | 4.8 | 14.5 | 0.00 | 0.00 | 0.00 | 53 | 1031.3 |
| 20260505015524 | 22 | 286 | 4.8 | 9.7 | 0.00 | 0.00 | 0.00 | 52 | 1031.3 |
| 20260505015024 | 22 | 266 | 1.6 | 9.7 | 0.00 | 0.00 | 0.00 | 52 | 1031.3 |
| 20260505014524 | 23 | 293 | 3.2 | 11.3 | 0.00 | 0.00 | 0.00 | 51 | 1031.3 |
| 20260505014026 | 23 | 278 | 3.2 | 12.9 | 0.00 | 0.00 | 0.00 | 51 | 1031.3 |
| 20260505013523 | 23 | 256 | 6.4 | 17.7 | 0.00 | 0.00 | 0.00 | 51 | 1031.3 |
| 20260505013023 | 23 | 289 | 8.0 | 17.7 | 0.00 | 0.00 | 0.00 | 51 | 1031.3 |
| 20260505012523 | 23 | 250 | 6.4 | 14.5 | 0.00 | 0.00 | 0.00 | 51 | 1031.3 |
| 20260505012023 | 23 | 297 | 3.2 | 14.5 | 0.00 | 0.00 | 0.00 | 51 | 1031.3 |
| 20260505011522 | 23 | 245 | 6.4 | 14.5 | 0.00 | 0.00 | 0.00 | 50 | 1031.3 |
| 20260505011023 | 23 | 261 | 6.4 | 14.5 | 0.00 | 0.00 | 0.00 | 50 | 1031.3 |
| 20260505010523 | 23 | 305 | 6.4 | 12.9 | 0.00 | 0.00 | 0.00 | 49 | 1031.3 |
| 20260505010023 | 23 | 250 | 6.4 | 17.7 | 0.00 | 0.00 | 0.00 | 49 | 1031.3 |
| 20260505005523 | 23 | 264 | 9.7 | 17.7 | 0.00 | 0.00 | 0.00 | 49 | 1031.3 |
| 20260505005022 | 23 | 341 | 4.8 | 24.1 | 0.00 | 0.00 | 0.00 | 48 | 1031.3 |
| 20260505004521 | 23 | 269 | 9.7 | 17.7 | 0.00 | 0.00 | 0.00 | 48 | 1031.3 |
| 20260505004022 | 24 | 273 | 6.4 | 17.7 | 0.00 | 0.00 | 0.00 | 49 | 1031.3 |
| 20260505003523 | 24 | 248 | 3.2 | 12.9 | 0.00 | 0.00 | 0.00 | 49 | 1031.3 |
| 20260505003023 | 24 | 274 | 4.8 | 14.5 | 0.00 | 0.00 | 0.00 | 48 | 1031.3 |
| 20260505002521 | 24 | 292 | 3.2 | 16.1 | 0.00 | 0.00 | 0.00 | 48 | 1031.3 |
| 20260505002021 | 25 | 278 | 6.4 | 22.5 | 0.00 | 0.00 | 0.00 | 47 | 1031.3 |
| 20260505001521 | 25 | 262 | 8.0 | 22.5 | 0.00 | 0.00 | 0.00 | 47 | 1031.3 |
| 20260505001020 | 25 | 280 | 4.8 | 19.3 | 0.00 | 0.00 | 0.00 | 46 | 1031.3 |
| 20260505000521 | 25 | 277 | 8.0 | 25.7 | 0.00 | 0.00 | 0.00 | 46 | 1031.3 |
| 20260505000021 | 25 | 341 | 6.4 | 25.7 | 0.00 | 0.00 | 0.00 | 45 | 1031.3 |
| 20260504235521 | 25 | 314 | 8.0 | 25.7 | 0.00 | 0.00 | 0.00 | 44 | 1031.3 |
| 20260504235024 | 25 | 297 | 11.3 | 25.7 | 0.00 | 0.00 | 0.00 | 43 | 1031.3 |
| 20260504234522 | 25 | 291 | 14.5 | 29.0 | 0.00 | 0.00 | 0.00 | 43 | 1031.3 |
| 20260504234020 | 25 | 300 | 14.5 | 32.2 | 0.00 | 0.00 | 0.00 | 42 | 1031.3 |
| 20260504233520 | 25 | 309 | 12.9 | 32.2 | 0.00 | 0.00 | 0.00 | 43 | 1031.3 |
| 20260504233019 | 25 | 297 | 14.5 | 30.6 | 0.00 | 0.00 | 0.00 | 43 | 1031.3 |
| 20260504232520 | 25 | 314 | 12.9 | 35.4 | 0.00 | 0.00 | 0.00 | 43 | 1031.3 |
| 20260504232019 | 26 | 307 | 17.7 | 35.4 | 0.00 | 0.00 | 0.00 | 43 | 1031.3 |
| 20260504231519 | 26 | 322 | 16.1 | 33.8 | 0.00 | 0.00 | 0.00 | 42 | 1031.3 |
| 20260504231019 | 26 | 333 | 11.3 | 27.4 | 0.00 | 0.00 | 0.00 | 42 | 1031.3 |
| 20260504230519 | 26 | 309 | 14.5 | 32.2 | 0.00 | 0.00 | 0.00 | 42 | 1031.3 |
| 20260504230020 | 26 | 296 | 16.1 | 32.2 | 0.00 | 0.00 | 0.00 | 41 | 1031.3 |
| 20260504225521 | 26 | 276 | 14.5 | 37.0 | 0.00 | 0.00 | 0.00 | 41 | 1031.3 |
| 20260504225020 | 26 | 281 | 17.7 | 45.1 | 0.00 | 0.00 | 0.00 | 42 | 1031.3 |
| 20260504224517 | 26 | 296 | 19.3 | 45.1 | 0.00 | 0.00 | 0.00 | 40 | 1031.3 |
| 20260504224020 | 26 | 323 | 12.9 | 37.0 | 0.00 | 0.00 | 0.00 | 41 | 1031.3 |
| 20260504223518 | 26 | 281 | 19.3 | 35.4 | 0.00 | 0.00 | 0.00 | 41 | 1031.3 |
| 20260504223018 | 26 | 268 | 11.3 | 38.6 | 0.00 | 0.00 | 0.00 | 41 | 1031.3 |
| 20260504222517 | 26 | 322 | 11.3 | 38.6 | 0.00 | 0.00 | 0.00 | 41 | 1031.3 |
| 20260504222017 | 26 | 297 | 16.1 | 37.0 | 0.00 | 0.00 | 0.00 | 42 | 1031.3 |
| 20260504221517 | 26 | 298 | 17.7 | 38.6 | 0.00 | 0.00 | 0.00 | 41 | 1031.3 |
| 20260504221017 | 26 | 281 | 22.5 | 38.6 | 0.00 | 0.00 | 0.00 | 41 | 1031.3 |
| 20260504220520 | 26 | 326 | 16.1 | 35.4 | 0.00 | 0.00 | 0.00 | 41 | 1031.3 |
| 20260504220017 | 27 | 296 | 16.1 | 32.2 | 0.00 | 0.00 | 0.00 | 41 | 1031.3 |
| 20260504215517 | 27 | 311 | 11.3 | 29.0 | 0.00 | 0.00 | 0.00 | 41 | 1031.3 |
| 20260504215016 | 26 | 314 | 11.3 | 33.8 | 0.00 | 0.00 | 0.00 | 41 | 1031.3 |
| 20260504214516 | 27 | 309 | 19.3 | 37.0 | 0.00 | 0.00 | 0.00 | 41 | 1031.3 |
| 20260504214015 | 26 | 300 | 14.5 | 37.0 | 0.00 | 0.00 | 0.00 | 42 | 1031.3 |
| 20260504213515 | 26 | 276 | 8.0 | 33.8 | 0.00 | 0.00 | 0.00 | 43 | 1031.3 |
| 20260504213018 | 26 | 292 | 16.1 | 38.6 | 0.00 | 0.00 | 0.00 | 42 | 1031.3 |
| 20260504212518 | 26 | 306 | 14.5 | 38.6 | 0.00 | 0.00 | 0.00 | 43 | 1031.3 |
| 20260504212015 | 26 | 348 | 17.7 | 35.4 | 0.00 | 0.00 | 0.00 | 43 | 1031.3 |
| 20260504211514 | 26 | 284 | 16.1 | 40.2 | 0.00 | 0.00 | 0.00 | 42 | 1031.3 |
| 20260504211014 | 26 | 278 | 16.1 | 41.8 | 0.00 | 0.00 | 0.00 | 43 | 1031.3 |
| 20260504210514 | 26 | 333 | 16.1 | 30.6 | 0.00 | 0.00 | 0.00 | 44 | 1031.3 |
| 20260504210014 | 26 | 297 | 9.7 | 25.7 | 0.00 | 0.00 | 0.00 | 44 | 1031.3 |
| 20260504205514 | 26 | 353 | 12.9 | 35.4 | 0.00 | 0.00 | 0.00 | 43 | 1031.3 |
| 20260504205013 | 26 | 338 | 6.4 | 35.4 | 0.00 | 0.00 | 0.00 | 44 | 1031.3 |
| 20260504204513 | 26 | 255 | 11.3 | 29.0 | 0.00 | 0.00 | 0.00 | 43 | 1031.3 |
| 20260504204016 | 26 | 302 | 11.3 | 29.0 | 0.00 | 0.00 | 0.00 | 43 | 1031.3 |
| 20260504203513 | 26 | 307 | 12.9 | 37.0 | 0.00 | 0.00 | 0.00 | 43 | 1031.3 |
| 20260504203017 | 26 | 264 | 14.5 | 37.0 | 0.00 | 0.00 | 0.00 | 44 | 1031.3 |
| 20260504202511 | 26 | 276 | 9.7 | 30.6 | 0.00 | 0.00 | 0.00 | 45 | 1031.3 |
| 20260504202010 | 26 | 344 | 12.9 | 38.6 | 0.00 | 0.00 | 0.00 | 45 | 1031.3 |
| 20260504201510 | 26 | 312 | 16.1 | 38.6 | 0.00 | 0.00 | 0.00 | 44 | 1031.3 |
| 20260504201018 | 26 | 285 | 16.1 | 30.6 | 0.00 | 0.00 | 0.00 | 46 | 1031.3 |
| 20260504200510 | 25 | 244 | 9.7 | 30.6 | 0.00 | 0.00 | 0.00 | 48 | 1031.3 |
| 20260504200011 | 25 | 309 | 9.7 | 33.8 | 0.00 | 0.00 | 0.00 | 47 | 1031.3 |
| 20260504195509 | 25 | 269 | 12.9 | 33.8 | 0.00 | 0.00 | 0.00 | 47 | 1031.3 |
| 20260504195013 | 25 | 280 | 9.7 | 27.4 | 0.00 | 0.00 | 0.00 | 47 | 1031.3 |
| 20260504194509 | 25 | 261 | 17.7 | 27.4 | 0.00 | 0.00 | 0.00 | 46 | 1031.3 |
| 20260504194010 | 25 | 271 | 9.7 | 27.4 | 0.00 | 0.00 | 0.00 | 47 | 1031.3 |
| 20260504193512 | 24 | 293 | 6.4 | 20.9 | 0.00 | 0.00 | 0.00 | 47 | 1031.3 |
| 20260504193015 | 24 | 293 | 9.7 | 20.9 | 0.00 | 0.00 | 0.00 | 47 | 1031.3 |
| 20260504192509 | 24 | 256 | 9.7 | 19.3 | 0.00 | 0.00 | 0.00 | 47 | 1031.3 |
| 20260504192008 | 24 | 271 | 8.0 | 24.1 | 0.00 | 0.00 | 0.00 | 47 | 1031.3 |
| 20260504191521 | 24 | 297 | 6.4 | 29.0 | 0.00 | 0.00 | 0.00 | 46 | 1031.3 |
| 20260504191010 | 25 | 308 | 12.9 | 29.0 | 0.00 | 0.00 | 0.00 | 46 | 1031.3 |
| 20260504190508 | 25 | 206 | 12.9 | 35.4 | 0.00 | 0.00 | 0.00 | 45 | 1031.3 |
| 20260504190008 | 25 | 293 | 12.9 | 35.4 | 0.00 | 0.00 | 0.00 | 46 | 1031.3 |
| 20260504185509 | 25 | 289 | 12.9 | 30.6 | 0.00 | 0.00 | 0.00 | 46 | 1031.3 |
| 20260504185007 | 25 | 328 | 14.5 | 32.2 | 0.00 | 0.00 | 0.00 | 45 | 1031.3 |
| 20260504184507 | 25 | 326 | 16.1 | 35.4 | 0.00 | 0.00 | 0.00 | 44 | 1031.3 |
| 20260504184007 | 25 | 321 | 16.1 | 38.6 | 0.00 | 0.00 | 0.00 | 44 | 1031.3 |
| 20260504183507 | 25 | 281 | 22.5 | 43.5 | 0.00 | 0.00 | 0.00 | 43 | 1031.3 |
| 20260504183007 | 25 | 293 | 19.3 | 35.4 | 0.00 | 0.00 | 0.00 | 44 | 1031.3 |
| 20260504182514 | 26 | 289 | 11.3 | 33.8 | 0.00 | 0.00 | 0.00 | 44 | 1031.3 |
| 20260504182009 | 26 | 294 | 16.1 | 33.8 | 0.00 | 0.00 | 0.00 | 43 | 1031.3 |
| 20260504181505 | 26 | 311 | 16.1 | 30.6 | 0.00 | 0.00 | 0.00 | 45 | 1031.3 |
| 20260504181005 | 25 | 285 | 11.3 | 25.7 | 0.00 | 0.00 | 0.00 | 44 | 1031.3 |
| 20260504180505 | 25 | 330 | 9.7 | 30.6 | 0.00 | 0.00 | 0.00 | 44 | 1031.3 |
| 20260504180007 | 25 | 315 | 12.9 | 30.6 | 0.00 | 0.00 | 0.00 | 45 | 1031.3 |
| 20260504175505 | 25 | 300 | 14.5 | 29.0 | 0.00 | 0.00 | 0.00 | 44 | 1031.3 |
| 20260504175004 | 25 | 306 | 4.8 | 32.2 | 0.00 | 0.00 | 0.00 | 46 | 1031.3 |
| 20260504174503 | 25 | 297 | 12.9 | 29.0 | 0.00 | 0.00 | 0.00 | 45 | 1031.3 |
| 20260504174002 | 25 | 302 | 16.1 | 29.0 | 0.00 | 0.00 | 0.00 | 44 | 1031.3 |
| 20260504173501 | 25 | 276 | 17.7 | 41.8 | 0.00 | 0.00 | 0.00 | 45 | 1031.3 |
| 20260504173001 | 25 | 311 | 20.9 | 41.8 | 0.00 | 0.00 | 0.00 | 44 | 1031.3 |
| 20260504172501 | 25 | 293 | 11.3 | 41.8 | 0.00 | 0.00 | 0.00 | 45 | 1031.3 |
| 20260504172001 | 25 | 283 | 25.7 | 41.8 | 0.00 | 0.00 | 0.00 | 44 | 1031.3 |
| 20260504171501 | 25 | 269 | 16.1 | 37.0 | 0.00 | 0.00 | 0.00 | 44 | 1031.3 |
| 20260504171100 | 25 | 302 | 11.3 | 37.0 | 0.00 | 0.00 | 0.00 | 45 | 1031.3 |
| 20260504170601 | 25 | 290 | 16.1 | 41.8 | 0.00 | 0.00 | 0.00 | 45 | 1031.3 |
| 20260504151041 | 21 | 302 | 17.7 | 41.8 | 0.00 | 0.00 | 0.00 | 50 | 1031.3 |
| 20260504150540 | 21 | 281 | 16.1 | 33.8 | 0.00 | 0.00 | 0.00 | 50 | 1031.3 |
| 20260504141030 | 20 | 283 | 11.3 | 33.8 | 0.00 | 0.00 | 0.00 | 55 | 1031.3 |
| 20260504140529 | 19 | 311 | 14.5 | 33.8 | 0.00 | 0.00 | 0.00 | 55 | 1031.3 |
| 20260504130525 | 17 | 290 | 11.3 | 22.5 | 0.00 | 0.00 | 0.00 | 58 | 1031.3 |
| 20260504110516 | 17 | 290 | 8.0 | 24.1 | 0.00 | 0.00 | 0.00 | 57 | 1031.3 |
| 20260504100512 | 17 | 284 | 6.4 | 19.3 | 0.00 | 0.00 | 0.00 | 57 | 1031.3 |
| 20260504081601 | 17 | 287 | 9.7 | 22.5 | 0.00 | 0.00 | 0.00 | 57 | 1031.3 |
| 20260504081057 | 17 | 304 | 6.4 | 20.9 | 0.00 | 0.00 | 0.00 | 57 | 1031.3 |
| 20260504080556 | 17 | 314 | 9.7 | 20.9 | 0.00 | 0.00 | 0.00 | 56 | 1031.3 |
| 20260504050533 | 19 | 277 | 8.0 | 19.3 | 0.00 | 0.00 | 0.00 | 49 | 1031.3 |
| 20260504045537 | 19 | 248 | 4.8 | 17.7 | 0.00 | 0.00 | 0.00 | 49 | 1031.3 |
| 20260504045035 | 19 | 293 | 6.4 | 19.3 | 0.00 | 0.00 | 0.00 | 49 | 1031.3 |
| 20260504044533 | 19 | 278 | 6.4 | 19.3 | 0.00 | 0.00 | 0.00 | 49 | 1031.3 |
| 20260504044035 | 19 | 248 | 6.4 | 19.3 | 0.00 | 0.00 | 0.00 | 49 | 1031.3 |
| 20260504043532 | 19 | 274 | 4.8 | 19.3 | 0.00 | 0.00 | 0.00 | 49 | 1031.3 |
| 20260504043032 | 19 | 298 | 4.8 | 17.7 | 0.00 | 0.00 | 0.00 | 49 | 1031.3 |
| 20260504042532 | 19 | 276 | 4.8 | 16.1 | 0.00 | 0.00 | 0.00 | 49 | 1031.3 |